LIMFLIMJ

Guest
Details From LIMF - Torino Caselle
To LIMJ - Genova Sestri
Flight Number -
Tags generated
Created
Modified
Stats Distance 69 nm / 129 km
Max Altitude 0 ft / 0 m
Waypoints 2
Social Downloads 5
Likes 0
Share VATSIM

Download

Looking for another format? Having issues loading an existing format? Contact us
Advertisement - Login to hide

Notes

Basic altitude profile: - Ascent Rate: 2500ft/min - Ascent Speed: 250kts - Cruise Altitude: 35000ft - Cruise Speed: 420kts - Descent Rate: 1500ft/min - Descent Speed: 250kts Options: - Use NATs: yes - Use PACOTS: yes - Use low airways: no - Use high airways: no

Route

LIMF LIMJ

ID Type Via Altitude (ft/m) Position (lat/lon) Dist (leg/tot) Name
O LIMF APT - 0 / 0 45.20076 / 7.64963 - / 0 nm Torino Caselle
O LIMJ APT - 0 / 0 44.41196 / 8.84187 69 / 69 nm Genova Sestri

Altitude Profile

Advertisement - Login to hide

LIMF

Details ICAO LIMF (TRN)
Name Turin-Caselle
Region Italy
Timezone Europe/Rome (UTC+1.0)
Stats Elevation 988 ft / 301 m (AMSL)
Location 45.200800° 7.649650°
Runways 1
Magnetic Variation 2.271° E

METAR

LIMF 252350Z 35007KT CAVOK 11/M16 Q1015

Decode

TAF

TAF LIMF 252300Z 2600/2624 03015KT CAVOK BECMG 2601/2603 04005KT

Decode

Departure Runways

ID Width Length Bearing (true/mag) Surface Threshold Overrun Markings Lighting
18 197 ft / 60 m 10,837 ft / 3,303 m 182.56° / 180.29° ASPHALT 2,372 ft / 723 m 1,647 ft / 502 m APP CENTERLINE EDGE THRESHOLD ALSF-II TDZ REIL-OMNI
36 197 ft / 60 m 10,837 ft / 3,303 m 2.56° / 0.29° ASPHALT 1,138 ft / 347 m 0 ft / 0 m PREC-APP CENTERLINE EDGE THRESHOLD ALSF-II REIL-OMNI

LIMJ

Details ICAO LIMJ (GOA)
Name Genova Cristoforo Colombo Airport
Region Italy
Timezone Unknown
Stats Elevation 13 ft / 4 m (AMSL)
Location 44.412000° 8.841800°
Runways 1
Magnetic Variation 2.532° E

METAR

LIMJ 252350Z 36024G45KT 330V030 CAVOK 13/M10 Q1011

Decode

TAF

TAF LIMJ 252300Z 2600/2624 13010KT 9999 SCT020 SCT070 TEMPO 2600/2604 01030G40KT BECMG 2604/2606 02015KT

Decode

Destination Runways

ID Width Length Bearing (true/mag) Surface Threshold Overrun Markings Lighting
10 148 ft / 45 m 9,577 ft / 2,919 m 105.33° / 102.80° CONCRETE 0 ft / 0 m 0 ft / 0 m PREC-APP CENTERLINE EDGE THRESHOLD SALS REIL-OMNI
28 148 ft / 45 m 9,577 ft / 2,919 m 285.36° / 282.83° CONCRETE 522 ft / 159 m 0 ft / 0 m PREC-APP CENTERLINE EDGE THRESHOLD SALS REIL-OMNI

Approach Navaids

Runway Type Ident Frequency Range Bearing (true/mag) Slope Elevation
28 GS GSE 109.30 MHz 10 nm / 19 km 285.40° / 282.87 ° 3.17° 26 ft / 8 m (AMSL)
28 DME GSE 109.30 MHz 18 nm / 33 km - - 26 ft / 8 m (AMSL)
28 LOC-ILS GSE 109.30 MHz 18 nm / 33 km 285.40° / 282.87 ° - 9 ft / 3 m (AMSL)

Popular Alternatives